Weather reports worldwide

Advertisment
Terschelling/Hoorn, Netherlands (6251): temperature & dewpoint: 02.08.2020 05:00:00 - 08.08.2020 05:00:00 (CEST)Terschelling/Hoorn, Netherlands (6251): temperature 5cm: 02.08.2020 05:00:00 - 08.08.2020 05:00:00 (CEST)Terschelling/Hoorn, Netherlands (6251): wind speed & gusts: 02.08.2020 05:00:00 - 08.08.2020 05:00:00 (CEST)Terschelling/Hoorn, Netherlands (6251): wind direction: 02.08.2020 05:00:00 - 08.08.2020 05:00:00 (CEST)Terschelling/Hoorn, Netherlands (6251): reduced air pressure: 02.08.2020 05:00:00 - 08.08.2020 05:00:00 (CEST)Terschelling/Hoorn, Netherlands (6251): visibility: 02.08.2020 05:00:00 - 08.08.2020 05:00:00 (CEST)Terschelling/Hoorn, Netherlands (6251): precipitation: 02.08.2020 05:00:00 - 08.08.2020 05:00:00 (CEST)
Date & Time tt [°C] td [°C] tt 5cm [°C] ff [km/h] ff [kn] fx [km/h] fx [kn] dd ppp [hPa] vv [km] rr [mm]
08.08.2020 05:00:00 18,0 17,4 14,6 7 4 11 6 ENE 1019,4 14 0,0
08.08.2020 04:00:00 17,2 16,4 14,1 7 4 11 6 ENE 1019,3 17 0,0
08.08.2020 03:00:00 17,6 16,1 15,0 11 6 14 8 NE 1019,4 24 0,0
08.08.2020 02:00:00 19,2 17,5 15,8 11 6 14 8 ENE 1019,6 31 0,0
08.08.2020 01:00:00 19,3 18,0 17,2 11 6 14 8 ENE 1019,7 21 0,0
08.08.2020 00:00:00 18,7 17,2 16,9 14 8 14 8 ENE 1019,7 25 0,0
07.08.2020 23:00:00 18,9 17,0 16,5 11 6 14 8 ENE 1019,9 32 0,0
07.08.2020 22:00:00 19,4 16,3 18,0 14 8 14 8 ENE 1019,8 40 0,0
07.08.2020 21:00:00 21,5 16,7 20,5 14 8 18 10 ENE 1019,4 43 0,0
07.08.2020 20:00:00 25,5 17,3 25,4 18 10 25 14 ENE 1019,2 42 0,0
07.08.2020 19:00:00 27,5 16,5 28,2 18 10 25 14 E 1019,4 39 0,0
07.08.2020 18:00:00 29,3 17,3 30,5 22 12 25 14 E 1019,5 40 0,0
07.08.2020 17:00:00 29,8 18,6 31,6 18 10 25 14 E 1019,7 36 0,0
07.08.2020 16:00:00 29,7 17,0 31,8 18 10 25 14 E 1020,0 34 0,0
07.08.2020 15:00:00 29,8 16,9 32,3 14 8 18 10 E 1020,3 34 0,0
07.08.2020 14:00:00 29,3 16,4 31,8 11 6 14 8 E 1020,5 4,1 0,0
07.08.2020 13:00:00 28,2 17,6 30,6 11 6 14 8 E 1020,6 24 0,0
07.08.2020 12:00:00 26,3 18,3 28,7 11 6 14 8 E 1020,7 25 0,0
07.08.2020 11:00:00 24,1 18,4 26,5 11 6 14 8 E 1020,8 19 0,0
07.08.2020 10:00:00 22,9 16,3 25,1 11 6 11 6 ESE 1020,7 23 0,0
07.08.2020 09:00:00 22,1 16,1 23,5 7 4 11 6 ESE 1020,7 25 0,0
07.08.2020 08:00:00 20,9 17,1 21,8 11 6 11 6 E 1020,6 19 0,0
07.08.2020 07:00:00 18,5 16,5 17,3 11 6 18 10 E 1020,3 20 0,0
07.08.2020 06:00:00 18,2 16,2 15,9 14 8 18 10 E 1020,1 29 0,0
07.08.2020 05:00:00 17,5 16,5 16,4 11 6 14 8 ENE 1020,0 25 0,0
07.08.2020 04:00:00 16,8 16,1 15,5 11 6 14 8 NE 1020,2 26 0,0
07.08.2020 03:00:00 17,0 16,3 15,6 11 6 14 8 ENE 1020,4 23 0,0
07.08.2020 02:00:00 18,5 17,8 18,0 11 6 14 8 ENE 1020,8 20 0,0
07.08.2020 01:00:00 18,6 17,5 17,9 11 6 22 12 ENE 1020,7 23 0,0
07.08.2020 00:00:00 19,8 18,1 19,0 18 10 25 14 E 1020,8 36 0,0
06.08.2020 23:00:00 18,7 17,7 17,4 14 8 18 10 ENE 1020,8 21 0,0
06.08.2020 22:00:00 16,8 16,2 16,1 14 8 14 8 ENE 1020,7 21 0,0
06.08.2020 21:00:00 18,7 16,7 18,2 11 6 11 6 NE 1020,2 35 0,0
06.08.2020 20:00:00 21,2 16,9 21,5 7 4 14 8 NNE 1020,0 41 0,0
06.08.2020 19:00:00 22,7 17,7 25,1 7 4 11 6 NNW 1020,0 39 0,0
06.08.2020 18:00:00 22,4 17,4 26,2 7 4 14 8 NNW 1020,0 43 0,0
06.08.2020 17:00:00 23,7 17,5 27,3 7 4 14 8 SSW 1020,1 30 0,0
06.08.2020 16:00:00 22,3 17,1 25,8 7 4 14 8 SSW 1020,0 37 0,0
06.08.2020 15:00:00 22,2 17,7 26,7 11 6 14 8 S 1019,9 33 0,0
06.08.2020 14:00:00 22,9 17,3 26,8 11 6 22 12 SSW 1020,0 27 0,0
06.08.2020 13:00:00 22,3 16,5 24,5 14 8 22 12 SW 1019,7 37 0,0
06.08.2020 12:00:00 21,9 17,9 23,9 18 10 22 12 SSW 1019,5 26 0,0
06.08.2020 11:00:00 20,8 17,9 21,8 18 10 22 12 SW 1018,8 36 0,0
06.08.2020 10:00:00 20,5 17,6 21,5 18 10 25 14 SW 1018,4 30 0,0
06.08.2020 09:00:00 20,3 16,9 20,8 18 10 25 14 SW 1017,7 37 0,0
06.08.2020 08:00:00 18,9 16,5 18,7 14 8 22 12 WSW 1017,3 44 0,0
06.08.2020 07:00:00 18,5 16,1 16,9 14 8 18 10 SW 1016,8 43 0,0
06.08.2020 06:00:00 16,8 14,9 15,4 14 8 22 12 SW 1016,4 37 0,0
06.08.2020 05:00:00 18,0 14,5 16,4 18 10 22 12 SW 1016,1 17 0,0
06.08.2020 04:00:00 19,0 15,3 16,1 14 8 18 10 SSW 1015,7 35 0,0
06.08.2020 03:00:00 18,5 15,4 13,0 11 6 14 8 S 1015,5 49 0,0
06.08.2020 02:00:00 15,6 13,9 11,8 11 6 14 8 S 1015,6 37 0,0
06.08.2020 01:00:00 16,8 14,2 12,9 7 4 14 8 SW 1015,6 45 0,0
06.08.2020 00:00:00 15,4 13,3 13,3 14 8 14 8 SW 1015,3 44 0,0
05.08.2020 23:00:00 18,6 15,1 15,4 11 6 14 8 S 1015,2 31 0,0
05.08.2020 22:00:00 18,4 16,7 14,7 11 6 14 8 S 1015,0 39 0,0
05.08.2020 21:00:00 20,2 15,5 19,2 11 6 18 10 SSW 1014,7 43 0,0
05.08.2020 20:00:00 22,6 15,4 22,0 14 8 25 14 SSW 1014,4 36 0,0
05.08.2020 19:00:00 23,2 14,5 24,0 18 10 36 19 SW 1014,4 42 0,0
05.08.2020 18:00:00 23,7 13,0 24,5 29 16 43 23 SW 1014,6 38 0,0
05.08.2020 17:00:00 23,6 13,9 24,5 32 18 43 23 SW 1014,7 33 0,0
05.08.2020 16:00:00 22,8 15,0 24,3 32 18 47 25 SSW 1014,5 29 0,0
05.08.2020 15:00:00 22,4 15,1 24,2 36 19 47 25 SSW 1014,6 25 0,0
05.08.2020 14:00:00 22,0 15,7 23,7 32 18 47 25 SSW 1014,3 29 0,0
05.08.2020 13:00:00 21,9 16,0 23,3 36 19 50 27 SW 1014,4 28 0,0
05.08.2020 12:00:00 20,6 15,0 21,8 40 21 50 27 SSW 1013,9 25 0,0
05.08.2020 11:00:00 21,2 16,0 21,9 36 19 47 25 SW 1013,8 22 0,0
05.08.2020 10:00:00 19,9 15,5 20,8 36 19 47 25 SW 1013,4 27 0,0
05.08.2020 09:00:00 19,4 15,2 19,7 36 19 47 25 SW 1013,2 26 0,0
05.08.2020 08:00:00 18,1 14,7 18,0 36 19 47 25 SW 1012,7 25 0,0
05.08.2020 07:00:00 17,6 14,7 17,3 36 19 47 25 SW 1012,4 24 0,0
05.08.2020 06:00:00 16,8 14,1 16,1 25 14 40 21 SSW 1012,5 35 0,0
05.08.2020 05:00:00 17,1 13,7 16,5 29 16 40 21 SSW 1012,4 42 0,0
05.08.2020 04:00:00 17,3 13,5 16,7 32 18 43 23 SSW 1012,5 37 0,0
05.08.2020 03:00:00 17,8 12,5 17,3 36 19 50 27 SSW 1012,9 43 0,0
05.08.2020 02:00:00 18,5 12,2 17,8 40 21 50 27 SSW 1013,1 46 0,0
05.08.2020 01:00:00 18,7 12,7 18,1 36 19 47 25 SSW 1013,8 47 0,0
05.08.2020 00:00:00 19,0 11,7 18,1 32 18 47 25 SSW 1013,9 50 0,0
04.08.2020 23:00:00 19,0 11,0 18,1 32 18 43 23 SSW 1014,1 49 0,0
04.08.2020 22:00:00 18,8 10,7 17,7 25 14 36 19 SSW 1014,6 50 0,0
04.08.2020 21:00:00 18,1 10,6 17,1 22 12 32 18 S 1014,8 50 0,0
04.08.2020 20:00:00 17,8 10,2 17,4 22 12 32 18 S 1015,5 49 0,0
04.08.2020 19:00:00 18,7 8,7 18,5 22 12 29 16 SSW 1015,8 44 0,0
04.08.2020 18:00:00 18,2 10,0 19,0 14 8 25 14 SW 1016,0 45 0,0
04.08.2020 17:00:00 19,0 10,3 21,4 18 10 29 16 SSW 1016,3 42 0,0
04.08.2020 16:00:00 19,6 11,4 22,4 14 8 25 14 SSW 1016,9 37 0,0
04.08.2020 15:00:00 19,2 9,6 22,2 18 10 25 14 SW 1017,1 34 0,0
04.08.2020 14:00:00 18,0 10,1 19,9 18 10 22 12 SSW 1017,1 37 0,0
04.08.2020 13:00:00 18,4 9,0 20,8 11 6 22 12 WNW 1017,2 41 0,0
04.08.2020 12:00:00 17,6 9,6 19,6 11 6 22 12 W 1017,2 33 0,0
04.08.2020 11:00:00 17,4 10,5 19,4 14 8 25 14 WNW 1017,3 38 0,0
04.08.2020 10:00:00 16,3 9,1 18,5 14 8 22 12 NW 1017,1 40 0,0
04.08.2020 09:00:00 15,9 9,0 16,8 14 8 22 12 NNW 1016,7 36 0,0
04.08.2020 08:00:00 15,2 9,3 15,1 11 6 18 10 NNW 1016,5 43 0,0
04.08.2020 07:00:00 13,5 9,0 12,4 11 6 18 10 NNW 1016,1 48 0,0
04.08.2020 06:00:00 13,7 10,3 12,7 11 6 25 14 NW 1015,9 45 0,0
04.08.2020 05:00:00 14,0 11,4 10,7 11 6 18 10 NNW 1015,3 46 0,0
04.08.2020 04:00:00 12,8 10,7 10,3 11 6 18 10 NNW 1015,5 49 0,0
04.08.2020 03:00:00 12,2 10,8 10,1 7 4 11 6 NW 1015,7 50 0,0
04.08.2020 02:00:00 13,3 11,8 11,3 11 6 11 6 WNW 1015,6 50 0,0
04.08.2020 01:00:00 12,2 11,4 9,8 7 4 11 6 NW 1015,5 50 0,0
04.08.2020 00:00:00 12,4 11,2 9,4 7 4 11 6 NNW 1015,2 50 0,0
03.08.2020 23:00:00 14,0 12,1 13,4 7 4 14 8 NNW 1014,9 48 0,1
03.08.2020 22:00:00 14,2 11,5 12,7 7 4 11 6 N 1014,7 50 0,0
03.08.2020 21:00:00 15,1 11,9 14,4 7 4 18 10 N 1014,4 50 0,0
03.08.2020 20:00:00 16,7 12,7 17,0 11 6 22 12 N 1013,9 46 0,0
03.08.2020 19:00:00 18,0 12,9 19,6 14 8 22 12 NNW 1013,9 36 0,0
03.08.2020 18:00:00 18,5 14,1 19,9 11 6 22 12 N 1013,9 40 0,0
03.08.2020 17:00:00 18,1 13,6 19,9 11 6 22 12 NNW 1013,7 44 0,0
03.08.2020 16:00:00 19,8 14,1 22,5 11 6 22 12 NNW 1013,7 42 0,0
03.08.2020 15:00:00 19,1 12,9 21,8 14 8 22 12 NNW 1013,8 43 0,0
03.08.2020 14:00:00 18,7 12,5 19,9 7 4 14 8 NNW 1013,9 46 0,0
03.08.2020 13:00:00 18,0 13,4 18,5 4 2 25 14 NNE 1013,9 32 0,0
03.08.2020 12:00:00 16,0 13,2 16,8 11 6 22 12 SSW 1014,2 34 0,0
03.08.2020 11:00:00 16,3 14,7 15,8 4 2 25 14 NNW 1013,9 34 4,0
03.08.2020 10:00:00 16,4 14,6 16,7 14 8 18 10 NNW 1014,0 12 1,0
03.08.2020 09:00:00 17,8 14,8 16,7 11 6 14 8 NW 1013,5 33 0,0
03.08.2020 08:00:00 16,0 14,7 15,2 7 4 11 6 W 1013,5 41 0,6
03.08.2020 07:00:00 13,5 12,8 11,6 7 4 14 8 W 1013,6 32 0,0
03.08.2020 06:00:00 11,4 11,3 8,6 11 6 14 8 WSW 1013,9 23 0,0
03.08.2020 05:00:00 12,1 11,9 6,3 7 4 11 6 W 1013,9 31 0,0
03.08.2020 04:00:00 12,1 11,5 7,9 11 6 11 6 W 1014,1 33 0,0
03.08.2020 03:00:00 11,6 10,9 7,9 7 4 11 6 WSW 1014,4 39 0,0
03.08.2020 02:00:00 12,2 11,6 7,6 7 4 11 6 W 1014,8 32 0,0
03.08.2020 01:00:00 11,7 10,9 7,4 7 4 14 8 W 1015,1 38 0,0
03.08.2020 00:00:00 11,1 10,7 7,8 7 4 14 8 W 1015,2 32 0,0
02.08.2020 23:00:00 11,7 10,8 9,8 7 4 14 8 W 1015,4 40 0,0
02.08.2020 22:00:00 12,6 11,1 11,8 11 6 18 10 W 1015,2 37 0,0
02.08.2020 21:00:00 14,8 12,0 14,5 11 6 25 14 W 1015,2 42 0,0
02.08.2020 20:00:00 16,9 12,9 16,5 18 10 32 18 W 1015,2 38 0,0
02.08.2020 19:00:00 17,4 12,9 18,0 22 12 32 18 W 1015,0 36 0,0
02.08.2020 18:00:00 18,3 13,3 18,2 25 14 36 19 WNW 1015,2 33 0,0
02.08.2020 17:00:00 19,0 13,1 20,9 29 16 40 21 WNW 1015,1 29 0,0
02.08.2020 16:00:00 19,4 13,1 21,0 25 14 40 21 WNW 1015,1 28 0,0
02.08.2020 15:00:00 19,7 12,4 21,2 29 16 40 21 W 1015,1 29 0,0
02.08.2020 14:00:00 19,3 13,7 19,6 29 16 43 23 W 1014,9 28 0,0
02.08.2020 13:00:00 18,7 13,2 19,1 29 16 40 21 WNW 1014,6 27 0,0
02.08.2020 12:00:00 18,8 11,9 20,7 29 16 40 21 WNW 1014,3 31 0,0
02.08.2020 11:00:00 19,1 12,8 19,5 25 14 36 19 WNW 1014,0 31 0,0
02.08.2020 10:00:00 18,8 15,9 18,3 29 16 36 19 WNW 1013,4 29 0,0
02.08.2020 09:00:00 18,3 16,7 18,6 22 12 29 16 WNW 1012,9 30 0,0
02.08.2020 08:00:00 17,8 17,2 17,7 14 8 29 16 W 1012,4 11 0,0
02.08.2020 07:00:00 18,0 17,5 17,6 22 12 29 16 WSW 1012,6 11 0,0
02.08.2020 06:00:00 17,9 17,3 17,0 22 12 25 14 SSW 1012,5 15 0,0
02.08.2020 05:00:00 17,2 16,9 16,2 14 8 18 10 SW 1012,8 12 0,0

tt = temperature
td = dewpoint
tt 5cm = temperature 5cm
ff = wind speed
fx = gusts
dd = wind direction
ppp = reduced air pressure
vv = visibility
rr = precipitation

Next stations